Location: Bittkow
(50.3000°N, 19.0000°E)
Time: 12:04:49
(UTC+00:00)

ATLAS 5 CENTAUR R/B - Pass Details

Date: 19 September 2020
Orbit: 527 x 1131 km, 63.4° (Epoch: 22 October)

Event Time Altitude Azimuth Distance (km) Brightness Sun altitude
Exits shadow 00:26:24 25° 53° (NE) 1,290 3.7 -33.4°
Drops below altitude 10° 00:28:28 10° 47° (NE) 2,091 5.1 -33.2°
Sets 00:30:59 0° 45° (NE) 3,105 6.2 -32.9°
